Temp
-11 -11 -11 -12 -11 -11 -11 -10 -10 -10 -10 -11 -11 -10 -10 -10 -11 -11 -10 -10 -11 -11 -11 -11 -11 -11 -11 -11 -11 -11 -11 -11 -11 -11 -11 -11 -11 -11 -11 -11 -12 -12 -11 -11
-11 -11 -11 -11 -11 -11 -11 -11 -11 -11 -11 -10 -10 -10 -10 -10 -10 -11 -10 -10 -11 -11 -11 -11 -11 -11 -11 -11 -11 -11 -11 -11 -11 -11 -11 -11 -11 -11 -11 -11 -12 -12 -12 -12
-11 -11 -11 -11 -11 -11 -11 -11 -11 -11 -11 -10 -10 -10 -10 -10 -10 -11 -11 -11 -11 -11 -11 -11 -11 -11 -11 -11 -11 -11 -11 -11 -11 -11 -11 -11 -11 -11 -11 -11 -11 -12 -11 -12
-12 -12 -11 -11 -11 -11 -11 -11 -11 -11 -11 -10 -10 -9 -10 -10 -10 -11 -11 -11 -11 -11 -11 -11 -11 -11 -11 -11 -11 -11 -11 -11 -11 -11 -11 -11 -11 -11 -11 -11 -12 -12 -12 -12
-12 -12 -12 -12 -12 -12 -11 -11 -11 -11 -11 -10 -10 -10 -9 -10 -10 -11 -11 -11 -11 -11 -11 -11 -11 -11 -11 -11 -11 -11 -11 -11 -11 -11 -11 -11 -11 -11 -11 -11 -12 -12 -12 -12
-12 -12 -12 -12 -12 -12 -12 -12 -12 -12 -11 -10 -10 -10 -9 -10 -10 -11 -11 -11 -11 -11 -11 -11 -11 -11 -11 -11 -11 -11 -11 -11 -11 -11 -11 -11 -11 -11 -11 -12 -12 -12 -12 -12
-13 -13 -13 -13 -13 -12 -12 -12 -13 -12 -12 -11 -11 -11 -10 -10 -10 -10 -11 -11 -11 -11 -11 -11 -11 -11 -11 -11 -11 -11 -11 -11 -11 -11 -11 -11 -11 -11 -11 -11 -11 -12 -12 -12
-14 -14 -13 -13 -13 -14 -14 -14 -13 -12 -12 -11 -11 -10 -10 -10 -11 -11 -11 -11 -11 -11 -11 -11 -11 -11 -11 -11 -11 -11 -11 -11 -11 -11 -11 -11 -11 -11 -12 -12 -11 -11 -12 -12
-15 -14 -14 -14 -14 -14 -14 -13 -14 -14 -13 -12 -11 -10 -10 -11 -11 -11 -12 -11 -11 -11 -11 -12 -11 -11 -12 -12 -12 -12 -11 -11 -12 -12 -11 -11 -11 -11 -12 -11 -12 -12 -12 -12
-15 -15 -14 -15 -15 -15 -14 -15 -15 -15 -14 -14 -12 -11 -10 -11 -12 -12 -13 -12 -12 -13 -13 -12 -12 -12 -12 -12 -12 -12 -12 -12 -12 -12 -12 -12 -12 -12 -12 -12 -12 -12 -13 -13
-16 -16 -15 -15 -15 -15 -15 -15 -15 -15 -15 -15 -13 -12 -11 -12 -12 -12 -12 -13 -13 -13 -13 -13 -13 -13 -13 -13 -12 -12 -12 -12 -12 -12 -12 -12 -12 -12 -12 -12 -12 -12 -13 -14
-17 -17 -16 -16 -16 -15 -15 -15 -16 -16 -15 -16 -15 -12 -12 -13 -14 -13 -13 -14 -14 -14 -14 -14 -14 -14 -13 -13 -13 -12 -12 -12 -12 -12 -12 -12 -12 -13 -13 -13 -14 -14 -14 -14
-17 -17 -16 -16 -16 -16 -16 -16 -16 -16 -16 -15 -16 -12 -14 -14 -14 -14 -15 -15 -15 -15 -15 -15 -15 -15 -15 -15 -14 -14 -13 -13 -13 -13 -13 -13 -13 -13 -13 -13 -14 -15 -15 -15
-17 -17 -17 -17 -17 -17 -17 -17 -17 -17 -16 -15 -15 -14 -13 -14 -14 -15 -15 -15 -15 -15 -15 -15 -15 -15 -15 -15 -15 -15 -15 -15 -14 -14 -14 -14 -14 -15 -14 -14 -14 -14 -15 -15
-18 -17 -17 -17 -18 -17 -17 -17 -17 -17 -17 -17 -15 -17 -13 -15 -15 -15 -15 -15 -15 -15 -15 -16 -16 -16 -16 -16 -16 -16 -16 -16 -16 -16 -15 -15 -15 -15 -14 -14 -14 -14 -15 -15
-20 -20 -20 -20 -20 -20 -19 -18 -18 -19 -18 -19 -18 -17 -16 -16 -16 -16 -15 -15 -15 -16 -16 -16 -16 -16 -16 -17 -17 -17 -17 -17 -17 -16 -16 -16 -16 -15 -15 -15 -15 -15 -15 -16
-21 -21 -21 -21 -20 -19 -19 -18 -20 -20 -20 -19 -19 -19 -19 -18 -17 -17 -17 -16 -16 -16 -16 -16 -16 -16 -16 -16 -16 -17 -17 -17 -17 -16 -16 -16 -16 -16 -16 -16 -16 -16 -16 -16
-21 -21 -21 -21 -21 -21 -19 -19 -20 -20 -20 -21 -20 -20 -19 -19 -19 -19 -19 -18 -18 -17 -17 -17 -17 -17 -17 -17 -16 -17 -17 -17 -17 -17 -17 -17 -17 -17 -17 -16 -16 -16 -16 -16
-23 -23 -23 -22 -22 -22 -20 -19 -21 -21 -21 -21 -21 -21 -21 -20 -19 -19 -19 -19 -19 -19 -18 -18 -18 -18 -18 -18 -17 -17 -17 -17 -17 -17 -17 -18 -18 -18 -18 -17 -17 -17 -17 -17
-24 -24 -24 -23 -23 -23 -21 -21 -22 -23 -23 -22 -22 -22 -22 -22 -21 -20 -21 -21 -21 -21 -20 -19 -19 -19 -19 -19 -19 -18 -18 -18 -18 -19 -19 -18 -18 -18 -18 -18 -18 -18 -18 -18
-24 -24 -24 -24 -24 -23 -22 -23 -23 -23 -23 -23 -23 -23 -23 -22 -22 -21 -21 -21 -21 -21 -21 -21 -20 -20 -20 -20 -20 -20 -19 -20 -20 -20 -20 -20 -19 -18 -19 -19 -19 -19 -19 -19
-24 -24 -24 -24 -24 -24 -23 -23 -23 -23 -23 -23 -23 -23 -23 -23 -22 -22 -22 -21 -21 -21 -21 -21 -20 -20 -20 -21 -21 -20 -20 -20 -20 -20 -20 -21 -21 -20 -20 -20 -20 -20 -20 -20
-25 -24 -25 -25 -25 -24 -23 -23 -23 -24 -24 -23 -23 -23 -23 -23 -23 -23 -22 -22 -22 -22 -21 -21 -21 -21 -21 -21 -21 -22 -21 -21 -21 -20 -20 -21 -21 -21 -21 -21 -21 -20 -21 -20
-25 -25 -25 -25 -24 -24 -25 -25 -25 -25 -25 -25 -24 -24 -24 -24 -23 -23 -23 -23 -22 -22 -22 -22 -21 -21 -22 -22 -22 -22 -22 -22 -21 -21 -21 -21 -21 -22 -21 -22 -21 -22 -21 -21
-25 -25 -25 -26 -25 -26 -26 -27 -27 -27 -27 -27 -26 -26 -25 -26 -25 -25 -24 -25 -24 -24 -23 -23 -23 -23 -23 -23 -23 -22 -23 -22 -22 -22 -23 -23 -23 -23 -22 -22 -22 -22 -23 -23
-26 -26 -27 -26 -26 -27 -26 -27 -27 -27 -27 -27 -27 -26 -26 -27 -26 -26 -26 -25 -25 -25 -25 -25 -25 -25 -24 -24 -24 -23 -24 -25 -24 -24 -24 -24 -24 -23 -23 -23 -23 -24 -24 -24
Height
5803 5807 5811 5813 5816 5818 5820 5823 5825 5826 5831 5832 5834 5839 5841 5844 5847 5849 5851 5852 5853 5855 5855 5856 5857 5857 5858 5858 5857 5856 5855 5854 5852 5851 5849 5847 5846 5843 5841 5837 5836 5834 5832 5833
5797 5801 5803 5805 5809 5812 5814 5817 5820 5821 5823 5826 5828 5831 5835 5838 5842 5844 5846 5848 5848 5849 5848 5849 5852 5852 5851 5851 5851 5850 5850 5848 5846 5845 5844 5842 5840 5838 5835 5833 5830 5828 5827 5826
5789 5793 5795 5798 5802 5805 5808 5810 5813 5816 5816 5819 5822 5824 5830 5833 5836 5838 5840 5841 5842 5842 5842 5843 5845 5846 5846 5845 5843 5844 5843 5842 5841 5839 5838 5836 5835 5833 5830 5826 5824 5822 5819 5819
5780 5783 5787 5791 5795 5797 5801 5803 5805 5807 5811 5812 5816 5813 5825 5828 5829 5832 5834 5834 5834 5835 5837 5837 5837 5838 5839 5839 5837 5836 5836 5836 5834 5832 5831 5829 5828 5826 5823 5821 5817 5814 5812 5810
5773 5776 5779 5783 5787 5789 5792 5794 5797 5799 5802 5805 5809 5807 5817 5822 5823 5825 5826 5826 5829 5829 5829 5829 5829 5829 5831 5831 5830 5828 5827 5827 5827 5825 5824 5822 5820 5818 5816 5814 5811 5809 5804 5802
5760 5765 5769 5773 5777 5780 5784 5785 5787 5790 5794 5797 5801 5805 5800 5814 5815 5817 5819 5820 5820 5820 5821 5821 5821 5821 5821 5821 5820 5820 5819 5818 5817 5816 5815 5814 5812 5810 5808 5806 5804 5802 5799 5795
5751 5755 5760 5764 5767 5770 5773 5775 5777 5782 5784 5789 5791 5796 5797 5796 5806 5807 5809 5809 5810 5811 5810 5810 5811 5811 5811 5810 5810 5809 5808 5808 5807 5808 5806 5804 5803 5801 5799 5797 5795 5793 5790 5787
5737 5743 5747 5754 5757 5760 5762 5765 5768 5769 5772 5778 5780 5785 5791 5788 5791 5796 5798 5796 5797 5800 5800 5799 5800 5799 5799 5799 5799 5798 5797 5797 5796 5797 5796 5794 5793 5790 5789 5788 5786 5783 5780 5776
5728 5732 5738 5742 5746 5748 5751 5754 5759 5757 5761 5763 5769 5779 5781 5782 5778 5778 5782 5784 5785 5785 5785 5786 5787 5787 5786 5786 5787 5787 5785 5784 5784 5783 5783 5782 5780 5779 5779 5777 5774 5771 5769 5765
5717 5721 5726 5731 5733 5736 5739 5745 5744 5746 5748 5750 5757 5764 5773 5771 5772 5769 5769 5766 5767 5769 5771 5771 5772 5772 5772 5773 5774 5773 5772 5771 5771 5770 5769 5768 5767 5767 5767 5765 5762 5759 5755 5752
5707 5711 5717 5720 5723 5727 5730 5731 5733 5736 5738 5739 5745 5752 5759 5759 5759 5758 5755 5754 5753 5751 5752 5755 5758 5758 5759 5759 5758 5758 5758 5758 5757 5757 5755 5753 5753 5754 5753 5752 5749 5746 5742 5738
5696 5700 5704 5709 5711 5714 5715 5718 5720 5722 5727 5729 5733 5740 5748 5746 5744 5743 5742 5741 5740 5739 5739 5737 5737 5738 5741 5743 5744 5744 5744 5742 5740 5740 5741 5742 5741 5739 5737 5736 5733 5731 5727 5723
5685 5688 5694 5696 5700 5702 5703 5706 5708 5711 5712 5719 5716 5735 5740 5731 5733 5732 5732 5728 5728 5726 5725 5723 5722 5721 5721 5723 5726 5727 5729 5728 5727 5728 5728 5726 5725 5723 5722 5719 5716 5714 5711 5707
5673 5678 5683 5686 5686 5688 5691 5693 5695 5698 5700 5704 5705 5715 5728 5721 5721 5721 5717 5715 5713 5711 5711 5710 5709 5709 5707 5707 5707 5707 5709 5711 5712 5713 5713 5712 5709 5707 5705 5703 5701 5697 5694 5692
5659 5664 5668 5671 5672 5673 5676 5680 5682 5684 5689 5683 5699 5690 5715 5709 5706 5701 5700 5703 5700 5699 5698 5696 5696 5696 5696 5696 5695 5694 5694 5693 5692 5694 5694 5694 5693 5691 5688 5686 5683 5679 5677 5674
5645 5650 5654 5656 5657 5659 5660 5669 5669 5669 5671 5668 5672 5672 5691 5693 5691 5685 5688 5689 5688 5687 5686 5683 5683 5682 5681 5681 5680 5679 5678 5677 5676 5676 5676 5674 5673 5672 5671 5669 5667 5665 5661 5658
5634 5636 5638 5641 5644 5642 5647 5661 5656 5657 5659 5656 5655 5663 5669 5671 5673 5671 5671 5671 5671 5670 5670 5668 5667 5666 5665 5664 5663 5663 5662 5660 5659 5659 5658 5657 5656 5654 5652 5651 5650 5649 5647 5644
5616 5619 5620 5622 5624 5623 5642 5643 5642 5642 5644 5640 5639 5645 5648 5649 5656 5656 5654 5652 5651 5652 5652 5650 5648 5647 5646 5646 5645 5644 5644 5644 5643 5641 5640 5638 5637 5637 5636 5634 5633 5632 5630 5629
5602 5603 5603 5604 5606 5611 5623 5632 5626 5620 5624 5626 5624 5624 5626 5627 5636 5642 5638 5633 5631 5630 5631 5631 5629 5628 5627 5626 5626 5626 5623 5622 5622 5623 5623 5621 5620 5618 5618 5617 5616 5614 5613 5611
5589 5591 5591 5590 5589 5594 5614 5615 5610 5601 5601 5608 5609 5610 5610 5608 5609 5623 5619 5616 5613 5610 5609 5609 5608 5608 5608 5607 5606 5606 5605 5604 5603 5602 5602 5601 5599 5598 5597 5597 5596 5595 5594 5594
5577 5577 5578 5581 5574 5578 5603 5601 5593 5585 5595 5588 5589 5590 5590 5591 5591 5601 5602 5599 5594 5593 5593 5592 5590 5590 5591 5589 5589 5589 5587 5585 5584 5582 5582 5582 5580 5579 5576 5575 5573 5573 5572 5573
5563 5562 5565 5565 5561 5563 5591 5583 5578 5573 5572 5572 5570 5574 5572 5571 5575 5576 5582 5582 5577 5574 5575 5573 5574 5574 5572 5570 5568 5570 5569 5567 5566 5565 5564 5563 5562 5560 5559 5557 5555 5554 5552 5552
5545 5550 5551 5550 5548 5555 5564 5563 5559 5555 5553 5555 5553 5554 5550 5555 5557 5557 5560 5561 5560 5556 5556 5554 5554 5555 5553 5552 5551 5550 5549 5549 5547 5546 5545 5544 5544 5542 5540 5538 5539 5538 5535 5533
5533 5536 5531 5534 5540 5543 5539 5539 5540 5537 5533 5535 5535 5534 5531 5535 5538 5539 5537 5539 5538 5536 5535 5534 5533 5532 5533 5532 5532 5531 5530 5529 5528 5527 5526 5526 5524 5522 5520 5520 5519 5519 5518 5516
5520 5520 5521 5516 5525 5523 5521 5521 5522 5519 5515 5516 5518 5516 5514 5510 5516 5515 5518 5516 5515 5515 5514 5513 5512 5512 5512 5512 5510 5510 5509 5509 5508 5507 5506 5505 5505 5503 5502 5501 5501 5499 5498 5498
5507 5504 5497 5499 5506 5497 5501 5506 5503 5499 5500 5499 5497 5502 5500 5494 5493 5494 5496 5494 5494 5493 5492 5492 5491 5490 5490 5489 5487 5488 5489 5489 5489 5488 5488 5488 5486 5484 5483 5483 5482 5481 5480 5479
Wind_Speed
34 34 32 31 31 32 32 32 30 32 29 30 29 29 29 30 28 26 23 22 21 20 23 21 21 20 19 18 19 18 18 19 21 20 21 23 24 24 26 26 25 26 27 27
35 35 34 35 34 32 33 32 32 33 32 31 31 29 29 29 28 26 25 24 23 24 25 26 23 21 22 22 22 21 21 22 23 22 23 23 24 25 26 27 29 31 31 30
37 36 35 36 36 35 34 34 35 34 35 33 31 31 28 27 27 26 26 26 26 28 28 28 27 25 24 25 27 25 25 25 25 25 26 25 26 26 27 28 29 33 35 35
41 39 38 37 35 36 36 37 36 37 36 37 35 36 29 28 29 27 27 28 29 30 29 29 30 29 27 27 29 31 30 29 27 29 30 29 28 29 29 30 30 32 35 37
43 42 41 39 38 39 38 39 40 39 39 39 38 40 28 28 30 28 29 30 28 31 32 33 34 34 32 32 33 34 34 32 32 34 34 33 34 33 31 31 32 33 36 38
48 46 45 44 43 42 41 41 43 43 42 42 41 40 42 30 31 31 31 32 33 35 35 37 38 38 38 38 38 38 39 38 37 38 38 37 38 37 34 31 31 34 37 40
50 49 47 47 47 46 45 45 45 45 46 44 45 43 44 44 36 36 35 35 37 39 42 42 42 42 42 43 43 43 41 42 41 40 42 42 41 41 39 38 36 34 37 41
47 49 48 47 48 46 45 46 48 49 50 49 49 48 44 47 45 41 41 44 44 42 43 44 44 46 47 47 47 47 47 45 45 44 44 45 45 45 44 42 38 40 40 42
45 45 45 46 46 47 48 51 47 49 52 54 55 50 50 48 50 50 48 47 46 48 49 48 49 50 49 48 48 49 50 50 49 49 48 47 48 48 47 47 44 40 41 44
50 51 50 48 47 47 48 46 48 50 53 55 56 55 50 51 49 51 50 53 53 51 50 50 49 50 51 51 51 53 54 54 54 53 53 52 52 51 49 48 47 45 45 46
43 46 48 47 47 43 43 44 47 49 50 52 52 52 51 51 52 53 55 55 56 56 54 52 50 51 50 50 52 54 55 57 57 58 58 59 57 54 50 48 47 49 50 48
42 40 41 40 41 40 42 43 44 45 46 49 52 54 50 48 50 51 53 54 55 56 56 56 57 56 54 53 54 56 57 58 59 60 59 56 54 53 51 51 53 53 51 51
47 47 46 46 46 47 46 48 48 49 51 49 52 38 37 46 47 49 51 56 57 58 59 60 60 58 57 57 55 56 56 58 59 58 57 56 56 57 57 58 55 52 53 56
53 53 55 54 55 55 54 53 54 54 56 56 56 51 43 49 50 49 51 53 57 59 62 64 66 65 64 63 63 62 61 60 59 58 58 57 57 57 58 58 58 56 58 58
55 59 62 61 60 61 60 59 58 58 58 62 59 60 46 51 53 55 55 54 55 56 57 58 59 59 57 57 57 57 55 55 56 55 54 54 56 57 58 57 57 57 55 54
62 59 55 55 55 55 58 59 59 58 60 61 64 66 60 60 61 62 63 63 62 60 61 62 61 59 59 58 55 56 57 58 59 60 59 57 56 55 54 55 55 54 54 52
61 59 61 63 62 62 61 63 61 62 60 59 58 54 58 64 65 67 68 68 69 70 69 69 69 67 67 68 68 62 62 61 62 62 61 59 57 56 55 53 53 54 54 53
63 63 64 66 66 72 69 68 68 67 68 70 72 72 73 73 72 72 74 75 76 76 75 74 74 73 72 72 72 71 69 67 66 65 65 64 62 60 59 57 56 56 56 55
48 50 53 57 61 67 70 69 65 66 66 66 69 71 73 73 71 71 75 77 77 76 76 77 78 77 75 74 75 76 77 75 71 70 69 66 67 67 65 65 63 61 61 61
47 47 50 53 56 58 57 54 53 55 61 62 57 59 59 61 64 65 67 71 70 68 70 72 71 71 71 68 69 70 72 75 72 65 66 71 70 68 64 63 62 62 66 71
52 53 54 53 58 60 49 51 55 60 58 59 59 60 60 61 62 59 60 64 70 73 69 65 65 65 65 68 71 68 67 65 67 67 63 61 65 67 66 66 68 65 64 66
58 59 60 61 63 65 51 57 61 63 64 64 65 64 65 66 64 63 61 62 65 67 70 75 76 75 74 73 74 75 76 72 72 70 72 68 60 60 63 63 64 62 61 65
65 64 64 65 66 65 63 64 66 69 70 68 70 70 71 70 69 68 67 67 68 69 69 70 69 68 69 68 69 66 66 71 73 76 78 73 67 65 61 58 59 55 55 64
68 68 71 70 70 69 70 71 70 70 72 73 74 74 74 73 73 73 73 72 72 74 74 74 73 72 71 70 67 62 68 69 70 69 68 65 66 71 69 61 62 61 57 59
72 72 73 74 71 71 69 67 68 68 68 70 71 73 75 74 72 72 70 68 70 73 75 76 75 74 67 73 75 73 72 69 67 65 63 59 59 59 60 61 62 54 48 47
71 72 71 72 71 73 72 69 69 69 68 67 69 69 68 70 69 69 67 68 67 67 68 72 71 71 71 75 76 77 79 73 67 67 65 63 63 58 59 55 48 45 47 49
Wind_Direction
239 238 241 241 240 241 241 245 244 248 246 245 244 241 240 243 244 245 248 250 250 249 252 262 269 279 285 288 295 297 298 299 307 310 315 321 326 327 317 298 290 286 284 281
240 240 241 243 244 244 247 248 246 247 246 245 244 242 240 243 246 246 246 251 252 251 256 261 265 274 284 289 290 292 295 296 300 303 307 315 319 319 317 307 287 285 282 282
241 242 243 245 245 247 247 249 250 248 248 249 247 247 242 243 244 247 249 247 250 247 251 260 267 272 278 283 284 291 294 295 295 297 300 306 310 313 311 302 296 287 290 286
243 244 244 247 249 250 251 251 251 251 250 252 253 256 240 244 248 248 250 249 246 247 250 258 264 268 271 276 282 287 290 293 290 293 296 298 304 308 303 300 293 288 288 287
246 244 247 247 248 248 250 251 252 251 252 252 252 262 251 247 250 251 249 248 250 252 254 256 261 269 272 273 278 282 286 287 286 290 292 295 298 302 307 299 294 288 286 286
243 244 245 247 246 249 251 252 252 253 253 254 257 258 266 254 253 250 251 253 250 251 254 258 263 268 273 276 277 277 279 281 284 286 288 291 293 296 300 299 299 294 287 285
243 244 243 245 246 246 248 249 252 253 255 257 258 257 265 269 263 261 258 257 253 251 255 257 259 262 265 269 272 274 275 277 278 280 285 286 288 289 292 294 295 290 287 281
239 240 242 243 246 248 247 248 250 253 254 254 255 260 261 267 268 265 264 266 264 258 255 257 261 262 265 267 269 272 275 276 276 277 279 281 284 286 288 289 291 293 287 281
241 242 244 246 244 244 247 249 251 253 255 256 256 257 261 264 270 271 272 269 267 267 266 264 263 264 267 268 270 272 272 273 275 278 278 278 279 281 282 286 288 291 288 286
241 241 240 241 243 246 249 249 249 250 254 256 259 259 258 264 265 268 271 271 270 269 270 269 269 268 268 268 268 269 271 274 275 277 278 277 276 278 280 282 284 288 290 286
241 243 244 244 244 247 250 253 255 257 257 260 261 258 259 259 262 263 266 269 272 275 275 272 268 267 267 266 266 266 268 270 271 272 273 276 279 280 279 280 284 286 287 283
235 238 239 238 239 246 253 255 257 257 259 260 262 257 256 264 268 265 266 271 275 279 280 280 278 275 271 269 270 269 268 268 268 269 272 275 277 280 282 284 285 284 280 278
238 235 238 240 245 251 254 258 260 260 261 263 261 263 259 262 265 268 269 270 271 272 273 274 277 279 279 279 276 273 273 274 275 277 278 279 281 282 283 282 280 278 276 275
249 249 244 247 252 252 254 258 260 261 262 265 267 265 255 264 268 268 266 266 266 266 269 271 273 276 278 280 282 283 283 282 281 281 281 281 281 281 281 280 279 275 275 275
251 251 252 253 255 257 258 258 258 260 264 264 267 264 259 261 261 262 263 263 265 267 269 272 275 278 281 282 282 283 284 285 284 285 285 284 282 281 281 281 280 278 277 277
255 251 249 256 258 254 255 259 263 266 270 269 267 265 265 262 262 263 264 265 266 267 270 273 274 274 275 275 275 278 279 282 283 284 285 285 285 284 283 283 281 278 278 280
253 252 252 251 246 245 245 258 257 259 256 254 254 261 268 268 267 267 265 265 264 264 266 268 270 270 271 272 273 273 276 278 281 282 281 280 280 281 282 281 281 281 280 279
253 253 254 254 253 250 254 255 256 256 257 265 266 263 262 263 264 266 268 269 268 267 267 268 269 270 270 271 271 273 274 276 277 278 279 279 280 280 279 279 279 279 279 280
251 253 255 256 256 258 258 260 265 266 264 264 266 268 269 269 264 264 267 270 272 272 271 270 271 271 271 271 271 274 275 277 277 275 272 273 274 275 277 279 279 279 279 279
254 256 258 261 262 263 261 263 266 266 267 271 270 269 270 271 271 270 268 268 271 274 274 271 269 270 272 273 273 273 274 275 276 276 273 270 270 275 277 275 275 277 280 280
254 257 260 262 267 266 264 267 270 271 274 272 271 273 273 272 272 271 268 269 269 266 264 263 267 271 273 276 278 278 277 276 276 276 278 277 276 277 277 284 289 286 285 285
256 259 260 262 265 268 267 264 267 270 272 272 273 273 273 274 274 274 271 270 270 270 268 268 270 273 275 275 276 271 270 275 279 279 281 285 287 284 286 290 286 283 281 278
257 261 265 265 268 270 271 270 269 270 272 272 274 275 276 275 275 275 274 272 271 272 272 273 273 273 273 273 270 269 272 276 279 279 279 281 282 278 281 282 285 283 287 278
257 260 263 266 268 272 272 272 273 276 276 276 276 276 277 277 276 276 277 275 273 272 272 272 273 274 273 272 270 263 272 275 276 277 277 277 276 277 277 282 284 285 282 278
258 260 263 264 267 268 269 271 273 274 276 277 278 279 281 281 280 279 277 276 275 274 273 273 272 271 270 262 265 271 277 275 275 276 278 278 280 275 276 274 272 269 268 276
259 262 264 265 266 267 268 269 270 271 273 275 275 275 277 279 280 279 278 277 275 273 272 269 264 265 263 261 260 268 275 274 276 275 277 276 278 267 267 267 273 280 283 286